Regional Weather Roundup
Issued by NWS

Home | Current Version | Previous Version | Graphics & Text | Print | Product List | Glossary On
Versions: 1 2 3 4 5 6 7 8 9 10 11 12 13 14 15 16 17 18 19 20 21 22 23 24 25 26 27 28 29 30 31 32 33 34 35 36 37 38 39 40 41 42 43 44 45 46 47 48 49 50
169
ASUS43 KDTX 131301
RWRMI
MICHIGAN HOURLY REGIONAL WEATHER ROUNDUP
NATIONAL WEATHER SERVICE DETROIT/PONTIAC MI
800 AM EST SAT FEB 13 2016

NOTE: "FAIR" INDICATES FEW OR NO CLOUDS BELOW 12,000 FEET WITH NO
SIGNIFICANT WEATHER AND/OR OBSTRUCTION TO VISIBILITY.

MIZ047>049-052>055-059>063-066>070-074>076-081>083-131400-
SOUTHEAST LOWER MICHIGAN

CITY           SKY/WX    TMP DP  RH WIND       PRES   REMARKS
ADRIAN         CLEAR      1  -7  68 W7        30.42R WCI -12
ALMA           LGT SNOW   5   2  86 CALM      30.39R
ANN ARBOR      CLEAR     -4  -7  87 W3        30.39R
BAD AXE        CLEAR     -3 -10  70 NW6       30.38R WCI -15
DETROIT CITY   CLEAR      3  -6  66 W7        30.41R WCI  -9
DETROIT        PTCLDY     2  -6  69 NW3       30.42R
FLINT          CLOUDY     4  -3  73 CALM      30.39R
GROSSE ILE     CLEAR      5  -4  66 NW5       30.41R WCI  -4
HILLSDALE      PTCLDY     0  -6  73 W7        30.37R WCI -13
HOWELL         PTCLDY     0  -4  80 W3        30.36R

CITY           SKY/WX    TMP DP  RH WIND       PRES   REMARKS
JACKSON        CLEAR      1  -6  72 W10       30.38R WCI -15
LAMBERTVILLE   CLEAR      2  -5  70 W3        30.44R
LANSING        PTCLDY     5  -2  72 W7        30.39R WCI  -7
LAPEER         CLOUDY    -3  -6  88 CALM      30.38R
MASON          CLEAR      3  -3  77 W6        30.38R WCI  -8
MONROE         CLEAR      1  -6  70 W5        30.42R WCI  -8
PONTIAC        MOCLDY     0  -5  79 CALM      30.35R
PORT HOPE        N/A      3  -4  72 NW21G31   30.35R WCI -18
PORT HURON     CLEAR     -2  -9  71 W6        30.39R WCI -14
TRI CITIES     CLOUDY     1  -9  62 NE7       30.41R WCI -12
MIDLAND        CLOUDY    -1  -9  68 NE3       30.41R
TROY           MOCLDY     5  -4  68 NW6       30.41R WCI  -6
SAGINAW HB     CLOUDY     1  -4  78 NW3       30.41R
$$
MIZ043>046-050>051-056>058-064>065-071>073-077>080-131400-
SOUTHWEST LOWER MICHIGAN

CITY           SKY/WX    TMP DP  RH WIND       PRES   REMARKS
BATTLE CREEK   CLOUDY     4  -1  80 W7        30.41R WCI  -8
BENTON HARBOR  LGT SNOW  14   2  58 NW12G20   30.47R WCI   0
BIG RAPIDS     LGT SNOW   8   4  85 W6        30.35R WCI  -2
COLDWATER      CLOUDY     1  -3  80 W5        30.42R WCI  -8
FREMONT        LGT SNOW   9   4  82 NW7       30.41R WCI  -3
HOLLAND        LGT SNOW  11   6  81 NW9       30.44R VSB 1   WCI  -2
GRAND RAPIDS   FLURRIES   5   1  83 W7        30.42R WCI  -7
IONIA          MOCLDY     7   1  75 W12       30.38S WCI  -9
KALAMAZOO      CLOUDY     2  -3  80 SW7       30.43R WCI -11
LUDINGTON      LGT SNOW  10   2  71 NW10G20   30.43R WCI  -4
MARSHALL       CLOUDY     1  -3  80 W5        30.40S WCI  -8
MOUNT PLEASANT CLOUDY     1  -5  75 CALM      30.38R
MUSKEGON       LGT SNOW  11   4  73 N9        30.44S VSB 1   WCI  -2
SOUTH HAVEN    CLOUDY    13   3  64 NW12G18   30.45R WCI  -1
$$
MIZ016>042-131400-
NORTHERN LOWER MICHIGAN

CITY           SKY/WX    TMP DP  RH WIND       PRES   REMARKS
ALPENA         CLEAR    -13 -18  78 W7        30.40R WCI -29
BEAVER ISLAND  CLOUDY    -3  -8  81 E5        30.40R HAZE    WCI -14
BELLAIRE       CLOUDY   -10 -15  79 CALM      30.42R
CADILLAC       LGT SNOW  -1  -6  80 E3        30.29R
CHARLEVOIX     MOCLDY    -9 -15  74 SE7       30.42R WCI -23
FRANKFORT      CLOUDY    10   1  66 NW14G21   30.39R WCI  -6
GAYLORD        CLOUDY   -22 -28  74 VRB3      30.32R
GRAYLING       CLOUDY   -23 -30  70 CALM      30.35R
HARBOR SPRINGS CLOUDY   -11 -17  76 CALM      30.39S HAZE
HOUGHTON LAKE  MOCLDY   -12 -17  78 E3        30.35R
MANISTEE       CLOUDY    10   1  67 NW18G25   30.39S VSB 3/4 WCI  -8
OSCODA         CLEAR    -11 -17  73 W8        30.41R WCI -27
PELLSTON       CLEAR    -24 -28  81 CALM      30.41R
ROGERS CITY    CLOUDY    -4 -12  70 NW9       30.40R HAZE    WCI -21
TRAVERSE CITY  LGT SNOW   0  -6  76 SE6       30.39R VSB 1   WCI -12
$$
MIZ007>008-015-131400-
EASTERN UPPER MICHIGAN

CITY           SKY/WX    TMP DP  RH WIND       PRES   REMARKS
KINROSS        MOCLDY   -18 -22  83 W3        30.40R
MACKINAC ISLAN CLEAR    -14 -21  72 NE6       30.40R WCI -28
NEWBERRY       LGT SNOW -14 -17  85 CALM      30.37R
S. S. MARIE    PTCLDY   -18 -25  70 NW3       30.40R
$$
MIZ004>006-011>014-085-131400-
CENTRAL UPPER MICHIGAN

CITY           SKY/WX    TMP DP  RH WIND       PRES   REMARKS
MANISTIQUE     LGT SNOW   0  -5  82 NE5       30.39R WCI -10
ESCANABA       CLEAR      0  -9  65 NW13      30.43S WCI -18
MENOMINEE      CLEAR     -6 -11  77 NW7       30.49R WCI -20
SAWYER-GWINN   CLOUDY    -4  -8  84 W9        30.35R WCI -20
$$
MIZ001>003-009>011-084-131400-
WESTERN UPPER MICHIGAN

CITY           SKY/WX    TMP DP  RH WIND       PRES   REMARKS
IRON MOUNTAIN  CLEAR    -10 -16  74 NW5       30.42R WCI -22
HOUGHTON       LGT SNOW   1  -6  72 NW18      30.41R WCI -20
COPPER HARBOR    N/A      5  -1  76 N23G32    30.42S WCI -17
IRONWOOD       CLOUDY     0  -4  85 NW8       30.44S WCI -15
$$

ABBREVIATIONS USED IN REMARKS
   TC - TEMPERATURE IN CELSIUS
  WCI - WIND CHILL INDEX
   HX - HEAT INDEX
  VSB - VISIBILITY





USA.gov is the U.S. government's official web portal to all federal, state and local government web resources and services.